TimeEST,TemperatureF,Dew PointF,Humidity,Sea Level PressureIn,VisibilityMPH,Wind Direction,Wind SpeedMPH,Gust SpeedMPH,PrecipitationIn,Events,Conditions,WindDirDegrees,DateUTC
12:53 AM,73.9,68.0,82,30.05,10.0,NNE,10.4,-,N/A,,Partly Cloudy,30,2011-11-07 05:53:00
1:53 AM,73.0,68.0,84,30.04,10.0,NE,11.5,-,N/A,,Clear,40,2011-11-07 06:53:00
2:53 AM,73.0,66.9,81,30.04,10.0,NE,9.2,-,N/A,,Clear,40,2011-11-07 07:53:00
3:53 AM,73.9,66.9,79,30.04,10.0,NE,12.7,-,N/A,,Clear,40,2011-11-07 08:53:00
4:53 AM,73.0,66.9,81,30.05,10.0,NNE,10.4,-,N/A,,Partly Cloudy,30,2011-11-07 09:53:00
5:53 AM,72.0,66.0,81,30.07,10.0,NNE,12.7,-,N/A,,Partly Cloudy,30,2011-11-07 10:53:00
6:53 AM,72.0,66.0,81,30.07,10.0,NNE,11.5,-,N/A,,Clear,30,2011-11-07 11:53:00
8:53 AM,73.9,66.9,79,30.10,10.0,NNE,10.4,-,N/A,,Overcast,30,2011-11-07 13:53:00
9:53 AM,77.0,66.0,69,30.10,10.0,NNE,12.7,-,N/A,,Scattered Clouds,30,2011-11-07 14:53:00
10:53 AM,79.0,66.0,64,30.09,10.0,NE,10.4,-,N/A,,Clear,40,2011-11-07 15:53:00
11:53 AM,80.1,62.1,54,30.08,10.0,NE,13.8,-,N/A,,Clear,40,2011-11-07 16:53:00
12:53 PM,80.1,63.0,56,30.05,10.0,NE,11.5,-,N/A,,Clear,50,2011-11-07 17:53:00
1:53 PM,80.1,64.0,58,30.03,10.0,NE,15.0,-,N/A,,Clear,50,2011-11-07 18:53:00
2:53 PM,80.1,64.0,58,30.02,10.0,ENE,13.8,-,N/A,,Clear,60,2011-11-07 19:53:00
4:53 PM,78.1,64.0,62,30.01,10.0,ENE,16.1,-,N/A,,Clear,60,2011-11-07 21:53:00
6:53 PM,75.9,64.9,69,30.03,10.0,NE,15.0,-,N/A,,Clear,50,2011-11-07 23:53:00
7:53 PM,75.9,66.0,71,30.05,10.0,NE,12.7,-,N/A,,Clear,50,2011-11-08 00:53:00
9:53 PM,75.0,66.9,76,30.06,10.0,NE,11.5,-,N/A,,Clear,40,2011-11-08 02:53:00
10:53 PM,73.9,66.9,79,30.05,10.0,NE,11.5,-,N/A,,Clear,40,2011-11-08 03:53:00
11:53 PM,73.9,66.0,76,30.03,10.0,NE,12.7,-,N/A,,Clear,40,2011-11-08 04:53:00